[[{"header":{"parameterUnit":"m.s-1","parameterCategory":1,"la1":30.2991,"la2":30.254,"lo1":-89.0895,"lo2":-89.0444,"dy":0.0017,"dx":0.0017,"nx":28,"ny":28,"refTime":"2026-02-14T03:00:00:Z","depth":0,"parameterNumber":2,"parameterNumberName":"U-component_of_WINDS"},"data":[0,0,0,0,0,0,0,0,0,0,0,0,0,0,0,0,0,0,0,0,0,0,0,0,0,0,0,0,0,0,0,0,0,0,0,0,0,0,0,0,0,0,0,0,0,0,0,0,0,0,0,0,0,0,0,0,0,0,5.1248,5.1247,0,5.116,5.1159,5.1158,5.1045,5.1043,5.1041,5.1039,5.0951,5.0951,5.095,0,0,0,0,0,0,0,0,0,0,0,0,0,5.1324,5.1323,5.1248,5.1247,5.1246,5.116,5.1159,5.1157,5.1045,5.1043,5.104,5.1038,5.0951,5.0951,5.095,0,0,0,0,0,0,0,0,0,0,0,0,0,5.1269,5.1323,5.1248,5.1179,5.1172,5.116,5.1158,5.1157,5.1045,5.1043,5.104,5.1037,5.0952,5.0951,5.095,5.0999,0,0,5.0947,5.0946,0,0,0,0,0,0,0,0,5.1272,5.1266,5.119,5.1184,5.1176,5.111,5.1153,5.1104,5.1046,5.1094,5.1039,5.1036,5.1006,5.1001,5.099,5.0995,5.0991,5.0947,5.0946,5.0946,5.0945,0,0,0,0,0,0,0,5.1276,5.127,5.1213,5.1189,5.1181,5.1154,5.1143,5.1143,5.1067,5.1089,5.1081,5.1072,5.1002,5.0992,5.0987,5.099,5.0947,5.0946,5.0945,5.0945,5.1035,5.1037,0,0,0,0,0,0,5.129,5.1273,5.1216,5.121,5.1218,5.1155,5.1143,5.1134,5.1066,5.1053,5.1074,5.1067,5.0995,5.0989,5.0984,5.1039,5.0946,5.0945,5.0944,5.1032,5.1035,5.1039,0,0,0,0,0,0,5.1292,5.1286,5.1219,5.124,5.1229,5.1157,5.1148,5.1134,5.1123,5.1055,5.1041,5.1077,5.0992,5.0985,5.0997,5.1035,5.0944,5.0944,5.1028,5.1033,5.1037,5.115,0,0,0,0,0,0,5.1295,5.1287,5.1303,5.1241,5.1228,5.1232,5.115,5.1134,5.1122,5.1111,5.1054,5.1042,5.0989,5.0999,5.0996,5.1032,5.0943,5.1025,5.103,5.1036,5.1142,5.1158,5.1171,0,0,0,0,0,5.1298,5.1338,5.1305,5.1299,5.1247,5.1235,5.1228,5.1166,5.1125,5.1142,5.1099,5.1044,5.1031,5.1001,5.0997,5.1033,5.1022,5.1029,5.1035,5.1136,5.1155,5.117,0,0,0,0,0,0,5.1407,5.1329,5.1291,5.1312,5.1281,5.1216,5.1235,5.1187,5.1167,5.1158,5.1083,5.1071,5.1093,5.1064,5.1031,5.1079,5.1019,5.1025,5.1097,5.1114,5.1128,5.1135,5.0942,0,0,0,0,0,5.1434,5.1429,5.1361,5.1387,5.1373,5.1307,5.1299,5.1255,5.122,5.1206,5.1163,5.1133,5.1122,5.1116,5.1102,5.1138,5.1126,5.1162,5.1176,5.1188,5.1194,5.1214,5.123,5.106,5.106,5.106,0,0,5.1488,5.1445,5.1446,5.1408,5.1378,5.1377,5.1297,5.1297,5.1297,5.1206,5.1215,5.1183,5.1144,5.1169,5.1178,5.1146,5.1238,5.1196,5.1206,5.1206,5.1223,5.1239,5.1253,5.1065,5.1064,5.1063,0,0,5.1588,5.1554,5.1573,5.1546,5.1503,5.1459,5.1465,5.1407,5.1383,5.1391,5.1324,5.1323,5.1305,5.1281,5.1266,5.1363,5.1312,5.136,5.1434,5.1455,5.1468,5.148,5.1516,5.153,5.1367,5.1367,5.1367,0,5.1661,5.1655,5.1589,5.1595,5.1581,5.1501,5.1521,5.1498,5.1454,5.1447,5.1412,5.1391,5.1358,5.1378,5.1402,5.1392,5.1398,5.1366,5.1471,5.1482,5.1492,5.1526,5.154,5.1373,5.1373,5.1372,5.1371,0,5.175,5.1747,5.1768,5.1727,5.1716,5.173,5.1667,5.1664,5.1622,5.1584,5.1595,5.1554,5.1532,5.1534,5.1492,5.1549,5.1531,5.1485,5.1422,5.1516,5.1547,5.1559,5.1382,5.138,5.1378,5.1377,0,0,5.1912,5.1838,5.1847,5.1829,5.1778,5.1776,5.1788,5.1766,5.1767,5.174,5.1749,5.1738,5.1697,5.1681,5.1636,5.1654,5.1737,5.1606,5.1604,5.1633,5.1801,5.1837,5.1853,5.1703,5.1705,5.1707,5.1805,0,5.2003,5.2017,5.196,5.199,5.1989,5.1915,5.1925,5.1897,5.1862,5.1857,5.1819,5.1814,5.1758,5.1748,5.1763,5.1723,5.1769,5.1715,5.1713,5.1714,5.1726,5.1868,5.1905,5.1999,5.1816,5.1818,5.182,0,5.211,5.209,5.2121,5.2072,5.2069,5.2079,5.2058,5.2053,5.2021,5.1995,5.1979,5.1928,5.1939,5.188,5.1895,5.186,5.1857,5.1838,5.184,5.1838,5.1773,5.1871,5.2027,5.2042,5.1838,5.1836,5.1835,0,5.2229,5.2209,5.2226,5.2213,5.2156,5.2165,5.2142,5.2107,5.2099,5.2081,5.2076,5.2059,5.2051,5.204,5.1988,5.1949,5.2011,5.1946,5.1991,5.1993,5.2007,5.2007,5.2166,5.2004,5.2003,5.2003,5.2003,0,5.2336,5.2358,5.2279,5.2289,5.2313,5.2249,5.2275,5.2244,5.2214,5.2219,5.2154,5.216,5.209,5.2089,5.2048,5.2069,5.2065,5.2046,5.2035,5.2052,5.2055,5.2049,5.2042,5.2007,5.2006,5.2005,5.2005,0,5.2472,5.2419,5.2433,5.2379,5.2366,5.2387,5.2341,5.235,5.2312,5.232,5.2318,5.226,5.2256,5.2203,5.2187,5.216,5.2198,5.2174,5.2209,5.2202,5.225,5.2247,5.2411,5.2431,5.2256,5.2258,5.2259,0,5.2544,5.256,5.2509,5.2507,5.2487,5.2486,5.2478,5.2417,5.2412,5.2379,5.2393,5.2384,5.2374,5.2372,5.233,5.2319,5.2295,5.2354,5.2293,5.2311,5.2298,5.2298,5.2301,5.2366,5.2369,5.237,5.2372,0,5.2679,5.2654,5.2645,5.2629,5.2622,5.2607,5.2587,5.259,5.2523,5.2522,5.2517,5.251,5.2496,5.2489,5.2471,5.2449,5.2401,5.2392,5.2402,5.242,5.244,5.2432,5.2245,5.2388,5.2386,5.2385,5.2384,5.2384,5.2786,5.2798,5.2765,5.2759,5.2738,5.2723,5.2729,5.2694,5.2689,5.2672,5.2637,5.264,5.2611,5.2582,5.2565,5.2567,5.2537,5.2551,5.2555,5.256,5.257,5.244,5.2563,5.2563,5.2562,5.2562,5.2562,0,5.292,5.2896,5.2891,5.2866,5.2863,5.2818,5.2795,5.2795,5.2798,5.2775,5.2767,5.2764,5.2759,5.2717,5.2707,5.2718,5.2696,5.2717,5.2716,5.2713,5.2596,5.2589,5.2736,5.2736,5.2736,5.2736,5.2736,5.2735,5.2989,5.3007,5.2979,5.2988,5.2963,5.2965,5.2957,5.2943,5.2924,5.2925,5.292,5.2893,5.2863,5.2852,5.2846,5.2834,5.2834,5.2864,5.2845,5.2737,5.272,5.2704,5.2697,5.2864,5.2864,5.2961,5.2962,5.2963]},{"header":{"parameterUnit":"m.s-1","parameterCategory":1,"la1":30.2991,"la2":30.254,"lo1":-89.0895,"lo2":-89.0444,"dy":0.0017,"dx":0.0017,"nx":28,"ny":28,"refTime":"2026-02-14T03:00:00:Z","depth":0,"parameterNumber":3,"parameterNumberName":"V-component_of_WINDS"},"data":[0,0,0,0,0,0,0,0,0,0,0,0,0,0,0,0,0,0,0,0,0,0,0,0,0,0,0,0,0,0,0,0,0,0,0,0,0,0,0,0,0,0,0,0,0,0,0,0,0,0,0,0,0,0,0,0,0,0,5.5092,5.5095,0,5.5364,5.5367,5.537,5.5421,5.5419,5.5417,5.5415,5.5693,5.5702,5.5711,0,0,0,0,0,0,0,0,0,0,0,0,0,5.462,5.4628,5.5092,5.5095,5.5099,5.5363,5.5367,5.5371,5.5421,5.5419,5.5416,5.5414,5.569,5.5701,5.5712,0,0,0,0,0,0,0,0,0,0,0,0,0,5.4851,5.4631,5.5091,5.5156,5.5165,5.5362,5.5367,5.5372,5.5422,5.5419,5.5415,5.5412,5.5686,5.57,5.5714,5.5866,0,0,5.5757,5.5763,0,0,0,0,0,0,0,0,5.4838,5.4869,5.5143,5.5152,5.5162,5.5355,5.5302,5.5537,5.5423,5.5324,5.5414,5.5411,5.5583,5.5606,5.5664,5.5879,5.5891,5.5758,5.5767,5.5773,5.5777,0,0,0,0,0,0,0,5.4822,5.4857,5.52,5.5147,5.5159,5.5172,5.5201,5.5347,5.5469,5.5333,5.5337,5.5368,5.5588,5.565,5.5671,5.5896,5.5758,5.577,5.5779,5.5785,5.6254,5.6257,0,0,0,0,0,0,5.4794,5.4844,5.5191,5.5208,5.4989,5.5183,5.5216,5.5296,5.5467,5.549,5.5371,5.537,5.5627,5.5654,5.568,5.5873,5.5773,5.5786,5.5794,5.625,5.6254,5.6259,0,0,0,0,0,0,5.4784,5.4825,5.518,5.5027,5.5073,5.5195,5.5285,5.5303,5.5366,5.5496,5.5518,5.5412,5.5626,5.5661,5.5821,5.5883,5.5792,5.5805,5.6245,5.6251,5.6257,5.6258,0,0,0,0,0,0,5.477,5.4821,5.488,5.5028,5.5081,5.5315,5.5288,5.5311,5.539,5.5391,5.5541,5.5562,5.5626,5.5799,5.5835,5.5901,5.5816,5.624,5.6248,5.6255,5.6253,5.6263,5.6272,0,0,0,0,0,5.4753,5.4868,5.4882,5.4924,5.5157,5.5318,5.5349,5.542,5.5395,5.5456,5.554,5.5558,5.587,5.5815,5.5855,5.5927,5.6236,5.6246,5.6254,5.6248,5.6261,5.6271,0,0,0,0,0,0,5.4724,5.4889,5.4906,5.5073,5.5181,5.5327,5.5405,5.543,5.5548,5.5544,5.5627,5.566,5.5816,5.5888,5.5823,5.6086,5.6052,5.6069,5.6034,5.6047,5.6056,5.6036,5.5828,0,0,0,0,0,5.4736,5.4853,5.4991,5.5125,5.5179,5.5282,5.5355,5.5401,5.5516,5.5563,5.5658,5.577,5.5894,5.5974,5.6095,5.6263,5.6297,5.6332,5.6341,5.6349,5.6363,5.646,5.6478,5.6288,5.6288,5.6288,0,0,5.4764,5.4869,5.4938,5.5122,5.5211,5.5332,5.5321,5.5448,5.5538,5.5582,5.574,5.5814,5.5944,5.6109,5.6187,5.6174,5.6423,5.636,5.6365,5.6376,5.6471,5.6489,5.6505,5.6294,5.6293,5.6292,0,0,5.4877,5.4967,5.509,5.518,5.5316,5.5384,5.5413,5.5556,5.5608,5.5767,5.5803,5.5912,5.6123,5.6215,5.629,5.644,5.6462,5.6476,5.6527,5.662,5.6635,5.6649,5.6705,5.6724,5.649,5.649,5.649,0,5.4894,5.5077,5.5149,5.5276,5.5357,5.5402,5.5528,5.5612,5.578,5.5836,5.5818,5.6086,5.6176,5.6365,5.6402,5.646,5.6498,5.6461,5.6627,5.6642,5.6656,5.671,5.6731,5.6491,5.6491,5.6491,5.6491,0,5.5093,5.5219,5.5302,5.5464,5.5554,5.5679,5.5772,5.5855,5.5892,5.5963,5.6126,5.6237,5.6382,5.643,5.6468,5.6626,5.6613,5.661,5.6579,5.6674,5.6726,5.6748,5.6493,5.6493,5.6492,5.6492,0,0,5.5194,5.5397,5.5426,5.5502,5.5656,5.5755,5.5883,5.6026,5.6096,5.6211,5.6322,5.65,5.6499,5.6584,5.6632,5.6714,5.6829,5.6702,5.6706,5.6723,5.7012,5.7015,5.7038,5.6843,5.6848,5.6851,5.7002,0,5.5327,5.5557,5.5628,5.5821,5.594,5.5986,5.6098,5.6205,5.6275,5.6386,5.6463,5.6589,5.6577,5.6629,5.6712,5.6797,5.6888,5.6787,5.6949,5.6954,5.6917,5.7065,5.7068,5.7205,5.7023,5.7027,5.7029,0,5.5513,5.5632,5.5838,5.5979,5.6032,5.6131,5.6269,5.6374,5.6497,5.6543,5.6638,5.668,5.6817,5.6776,5.6968,5.6897,5.6968,5.702,5.7027,5.7046,5.6998,5.7091,5.7251,5.7272,5.7062,5.7059,5.7057,0,5.5569,5.5781,5.5932,5.5995,5.6163,5.6233,5.6306,5.6426,5.6508,5.6628,5.6683,5.6817,5.6891,5.6995,5.7073,5.7035,5.7258,5.7223,5.7301,5.7299,5.7347,5.7343,5.7523,5.7389,5.7388,5.7388,5.7387,0,5.5711,5.5836,5.596,5.6053,5.6195,5.6275,5.6413,5.6489,5.6595,5.6705,5.6752,5.6854,5.6949,5.7065,5.7126,5.7277,5.7309,5.7351,5.7366,5.7348,5.7343,5.7396,5.739,5.7393,5.7392,5.7391,5.739,0,5.5798,5.5887,5.6055,5.6201,5.6241,5.6339,5.6464,5.6557,5.6629,5.6767,5.6804,5.6918,5.7056,5.7143,5.7318,5.736,5.7526,5.7537,5.7484,5.7492,5.7566,5.7559,5.7788,5.7823,5.7663,5.7664,5.7666,0,5.5884,5.5982,5.6139,5.6216,5.629,5.6413,5.6498,5.658,5.6666,5.6816,5.6891,5.7032,5.715,5.7368,5.7467,5.7602,5.7618,5.7689,5.7638,5.7618,5.7622,5.7616,5.7627,5.7698,5.7699,5.77,5.7701,0,5.6028,5.6067,5.6187,5.6324,5.6424,5.6535,5.6646,5.6707,5.6809,5.6903,5.7046,5.7137,5.7317,5.7457,5.7602,5.7678,5.7708,5.7716,5.7742,5.7725,5.7692,5.7713,5.7509,5.7711,5.771,5.7709,5.7708,5.7708,5.6119,5.6209,5.6334,5.6467,5.656,5.6663,5.6759,5.6843,5.6963,5.7117,5.7158,5.7307,5.743,5.7627,5.7706,5.7825,5.7816,5.7852,5.7862,5.787,5.7873,5.7671,5.7851,5.7851,5.7851,5.7851,5.7851,0,5.6267,5.6351,5.6472,5.6627,5.6733,5.6751,5.6876,5.6963,5.7093,5.7206,5.7321,5.7486,5.7623,5.7732,5.7873,5.7948,5.7965,5.7982,5.7978,5.7996,5.7872,5.7837,5.7966,5.7966,5.7966,5.7966,5.7966,5.7966,5.6357,5.6511,5.6565,5.6766,5.6849,5.6996,5.7066,5.7162,5.7253,5.7434,5.7549,5.7619,5.7732,5.7882,5.8009,5.8038,5.8088,5.8103,5.8135,5.8017,5.8005,5.7992,5.796,5.8113,5.8113,5.825,5.8252,5.8252]}]]